Weather in Simsir

Russia / Chechen Republic     43°00′32″N   46°27′56″E
temp.,
°C
wind,
m/s
gust,
m/s
humid.,
%
clouds,
%
prec.,
mm/h
press.,
hPa
HPBL,
m
15 june, tue
tue1500:00+15sse22870 0.0 101121
03:00+14s32830 0.0 101026
06:00+17s116950 0.0 100953
09:00+21n2163100 0.0 1009668
12:00+23nne326643 0.8 1008683
15:00+23n32670 2.3 1009850
18:00+19n118439 0.4 1010218
21:00+16ssw22930 0.9 101224
16 june, wed
wed1600:00+16s32860 0.0 101224
03:00+15s32820 0.0 101217
06:00+18sse12780 0.0 101252
09:00+24ne23550 0.0 1010785
12:00+28ne33450 0.0 10081106
15:00+28ene33460 0.0 10071018
18:00+24nne11690 0.0 100792
21:00+19s22780 0.0 100818
17 june, thu
thu1700:00+18s22770 0.0 100727
03:00+18s32634 0.0 100627
06:00+20ssw12610 0.0 100642
09:00+26nnw22460 0.0 1006584
12:00+25wnw56540 0.0 10091181
15:00+21w587695 0.1 1012971
18:00+19wsw59834 1.1 1014604
21:00+16sw478931 1.9 1016176
18 june, fri
fri1800:00+15wsw36910 0.1 1016191
03:00+15wsw389550 1.1 1018405
06:00+16wsw48841 0.3 1018482
09:00+21wnw45625 0.4 1017837
12:00+24nw555442 0.1 10161345
15:00+23wnw446286 0.4 10171336
18:00+20w347811 0.3 1018608
21:00+17ssw22872 0.4 102027
19 june, sat
sat1900:00+16sse21852 0.0 102013
03:00+16sse22880 0.0 102022
06:00+18se23830 0.0 1020142
09:00+24ene34583 0.0 10191121
12:00+26ene55503 0.0 10171352
15:00+25ese56484 0.1 1017961
18:00+22ese23620 0.0 1017258
21:00+17sse32730 0.0 101932